Wind_Speed
19 19 19 19 20 21 22 22 22 21 21 19 20 21 21 20 20 20 20 19 19 20 20 20 20 19 20 20 21 21 21 22 22 23 23 24 24 25 25 25 25 25 25 24
21 21 21 21 21 22 22 23 23 22 20 20 21 22 22 22 22 22 21 21 20 20 21 21 21 21 21 21 22 22 22 23 23 24 25 25 26 26 25 26 26 26 25 25
23 23 23 22 22 23 24 24 24 23 22 21 21 22 22 23 22 22 21 21 21 21 22 22 22 22 22 23 23 24 24 24 25 25 26 26 26 26 26 26 26 26 25 25
25 25 25 23 22 23 23 23 23 23 22 22 22 22 23 23 23 23 22 22 22 23 23 23 23 24 24 24 25 25 25 26 26 26 26 27 27 27 27 27 26 26 26 25
26 26 25 23 23 23 23 22 22 23 23 23 23 22 22 23 23 23 23 24 24 24 24 24 25 25 25 25 26 26 27 27 27 27 28 28 28 28 28 28 27 27 27 26
27 27 26 24 24 24 24 23 22 23 23 23 23 23 23 23 24 23 24 24 25 24 24 25 25 25 26 26 27 27 28 28 28 28 29 29 28 28 28 28 28 28 27 27
27 28 27 25 25 25 25 24 24 24 24 23 24 24 24 24 25 24 25 25 25 25 25 25 26 26 27 27 28 28 29 29 29 29 29 28 28 28 28 28 28 28 27 27
27 28 26 25 25 26 26 26 25 25 25 24 24 24 25 24 24 25 25 26 26 26 26 26 27 27 28 29 28 29 29 29 29 28 27 28 28 27 27 28 28 28 28 28
28 27 27 27 26 26 26 26 26 26 25 25 25 25 26 25 25 25 26 27 28 27 27 28 28 29 29 29 29 29 29 29 29 27 27 27 27 26 27 27 27 27 27 28
28 27 27 27 28 27 27 27 27 26 25 25 26 26 27 27 26 26 27 27 28 28 28 29 29 30 30 30 30 29 29 29 27 27 26 26 25 25 25 26 27 27 27 27
29 28 28 28 27 27 27 27 27 26 26 25 25 25 26 28 27 27 27 28 29 30 30 29 30 30 30 30 29 29 29 28 27 27 26 25 25 24 25 26 26 26 26 26
29 29 29 28 27 27 27 27 27 27 27 27 27 27 28 28 28 28 29 29 31 31 31 31 31 31 31 30 29 28 28 27 27 27 27 26 26 25 25 25 25 25 25 26
30 29 29 29 28 27 27 27 27 27 28 28 29 29 29 29 29 28 29 30 31 31 31 31 31 31 31 30 29 29 28 27 26 26 26 26 26 25 25 24 25 25 26 27
30 29 29 28 28 28 28 29 29 28 28 29 29 29 30 29 29 29 30 30 30 31 31 30 30 30 29 29 28 28 28 27 27 27 27 27 26 25 25 25 25 26 26 27
30 30 30 29 28 29 29 30 30 29 29 29 29 29 29 29 29 29 30 30 30 30 30 29 29 29 28 28 27 27 27 27 26 26 26 27 27 26 26 26 26 27 27 28
30 30 30 29 29 29 30 30 31 30 30 30 29 29 29 29 29 29 30 30 29 29 28 27 27 27 27 27 27 27 27 27 27 26 26 26 26 27 27 27 27 27 27 27
30 30 30 29 29 30 30 30 30 30 30 30 30 29 29 29 29 29 28 28 29 28 27 27 27 27 27 27 26 26 27 26 27 26 27 27 27 27 28 28 27 27 27 27
30 30 30 30 30 29 29 29 29 29 30 30 30 30 30 30 29 29 28 28 27 27 27 27 27 27 27 26 26 26 26 26 27 27 27 27 27 27 27 27 27 27 27 27
28 28 28 28 29 29 28 28 28 29 29 29 29 29 29 29 29 29 28 27 27 27 27 26 26 26 26 26 26 26 26 27 27 27 26 27 27 27 27 27 26 26 27 27
25 26 27 27 27 28 27 27 27 28 28 29 29 28 28 28 28 28 28 28 28 28 27 26 26 27 27 27 27 26 26 27 27 27 27 26 26 26 26 26 27 27 27 27
24 25 26 27 26 27 27 27 28 28 29 29 29 29 28 28 28 28 28 27 27 27 26 26 26 26 27 27 27 27 27 27 27 28 28 27 27 27 27 27 28 28 28 28
24 25 25 26 26 26 27 28 28 28 28 28 28 28 28 28 28 28 28 28 28 27 27 26 26 27 27 27 27 28 28 28 28 28 28 28 28 28 28 28 28 28 28 28
25 25 25 25 25 26 27 28 28 28 28 28 27 27 27 27 28 28 28 28 28 28 28 28 27 27 28 28 28 29 29 29 29 29 29 29 29 29 29 28 28 28 29 29
25 24 24 24 24 25 25 26 27 28 28 28 28 28 28 28 28 28 28 29 29 29 29 28 28 28 28 28 28 28 28 28 28 29 29 29 29 29 29 28 28 28 28 29
25 25 25 24 24 25 25 25 25 26 27 28 28 28 28 28 28 28 28 29 29 29 28 28 29 28 28 29 29 29 28 28 28 28 28 28 28 28 28 28 28 28 29 29
27 27 26 26 26 25 25 25 25 26 26 26 27 27 27 27 28 28 28 28 27 27 27 27 28 28 28 28 28 29 29 28 28 28 29 28 28 29 29 29 29 30 30 30
26 27 27 26 26 26 25 25 25 25 25 26 26 26 27 27 28 28 28 27 27 27 27 27 27 28 29 29 29 29 29 28 28 28 28 28 29 29 29 30 30 30 31 31
Wind_Direction
271 271 268 265 264 265 267 270 272 274 274 271 269 269 270 270 271 270 271 271 273 274 275 276 278 280 282 283 284 286 287 288 289 288 287 287 286 285 284 284 284 284 283 282
269 270 268 268 268 268 269 271 272 273 273 271 270 269 269 270 271 271 273 271 272 274 275 275 277 279 281 282 284 285 287 288 288 288 288 288 286 286 285 285 285 285 282 281
269 269 269 268 270 271 272 272 272 272 273 272 270 270 270 269 269 271 273 273 274 273 274 275 277 279 281 283 284 285 286 287 288 289 289 289 286 285 285 285 286 285 283 283
270 268 267 271 270 272 272 273 273 272 272 272 272 271 269 269 269 268 270 272 273 274 274 275 278 279 280 281 282 284 285 287 288 289 290 288 286 286 285 285 285 285 284 285
268 268 268 269 270 272 273 272 272 272 272 273 272 272 272 273 271 269 270 272 274 275 276 277 278 279 280 282 283 284 285 287 288 289 289 288 286 285 284 284 284 284 283 284
267 267 269 269 269 269 272 272 272 273 273 274 273 273 273 273 271 270 271 274 275 276 277 278 279 280 281 283 285 286 287 286 288 290 289 287 285 284 283 282 283 283 281 282
266 268 269 270 269 269 270 272 272 272 272 273 274 274 274 272 270 271 272 274 276 277 277 278 280 280 281 283 285 286 287 287 287 289 289 287 285 284 282 282 282 281 281 282
265 266 268 268 268 268 270 270 271 271 271 272 274 276 275 272 271 271 273 274 275 276 277 278 280 282 284 285 286 286 287 287 287 289 289 288 285 284 282 281 283 281 280 279
264 265 266 266 266 268 268 268 269 271 271 272 274 275 274 271 271 272 274 277 277 277 277 278 280 283 285 285 286 286 286 287 288 287 288 289 288 284 282 282 282 281 281 280
263 265 266 266 266 266 266 267 268 269 270 272 274 274 273 273 274 274 275 278 278 278 279 280 281 284 284 286 286 286 285 285 285 286 288 289 288 285 284 283 283 282 283 283
263 264 264 265 265 266 266 266 267 268 270 271 272 274 275 275 277 276 278 279 280 281 280 280 281 282 284 285 286 285 285 283 284 286 288 289 288 286 286 285 283 284 284 284
264 264 262 262 262 263 265 266 267 268 270 270 272 274 276 277 278 278 279 279 280 281 281 281 282 283 284 284 285 284 283 283 283 284 286 288 288 287 287 286 283 283 283 284
264 263 262 262 262 263 264 265 266 268 270 272 273 273 276 277 278 280 281 281 282 283 282 282 282 282 282 282 283 284 283 282 283 284 284 286 288 287 287 287 285 285 285 286
264 263 263 263 263 263 265 266 267 269 270 272 274 275 277 279 280 282 283 283 284 284 283 282 283 282 282 281 282 282 282 282 282 282 283 286 286 286 286 286 286 285 286 287
264 263 263 262 262 264 266 267 268 269 270 273 276 276 277 278 280 282 283 284 285 285 284 283 282 282 281 281 281 281 281 282 282 282 283 284 285 285 286 286 286 286 287 288
264 264 264 263 262 264 266 267 268 269 271 273 274 275 275 277 280 282 283 283 285 285 283 283 283 282 282 282 281 280 280 281 282 283 284 284 284 285 286 287 288 289 289 290
264 264 265 265 265 266 267 268 269 270 271 271 273 274 275 277 279 281 283 283 283 283 283 283 283 283 283 282 281 281 281 280 281 283 284 286 287 286 286 287 289 289 289 289
264 263 264 265 266 266 268 270 270 270 271 272 273 274 276 278 279 280 281 282 282 282 282 282 282 282 282 282 281 280 280 281 282 283 284 285 286 287 287 288 288 289 289 289
264 264 265 266 266 266 268 270 270 270 271 271 272 274 277 279 279 278 278 280 281 282 282 281 280 278 279 279 279 280 280 280 281 284 284 285 286 286 286 288 289 290 290 290
265 265 265 265 265 266 267 269 270 271 272 273 273 275 277 278 278 277 277 278 280 280 280 280 279 278 278 278 278 280 280 280 282 284 284 285 286 286 287 289 290 291 291 291
267 266 266 265 265 266 267 268 269 271 273 274 274 275 277 277 277 277 276 278 280 280 280 281 281 280 279 278 278 281 281 282 283 283 282 283 284 286 288 289 290 291 291 291
268 268 269 269 269 269 270 270 271 272 274 276 276 276 277 277 277 277 276 277 278 279 279 280 281 281 279 279 280 281 282 282 283 283 283 284 285 286 287 289 289 290 291 291
268 270 270 271 271 271 272 272 271 272 274 276 276 276 276 276 276 276 276 275 276 277 277 278 279 281 281 281 281 281 281 281 282 283 283 283 284 286 287 288 289 289 291 292
268 269 270 271 271 272 273 273 273 274 275 276 275 276 277 277 277 276 275 275 276 276 276 277 279 280 281 281 282 282 282 281 282 283 283 283 283 285 286 287 288 289 291 292
268 269 271 272 272 273 273 274 275 276 277 276 276 276 277 277 277 276 275 276 276 276 277 278 279 280 281 281 282 283 283 281 281 282 282 282 283 284 285 286 287 289 291 291
269 270 270 271 273 274 275 276 277 279 279 278 276 277 277 278 277 276 276 275 275 275 276 277 278 279 280 282 283 284 283 283 282 282 282 283 283 284 286 286 288 289 291 291
269 270 270 271 272 273 274 276 278 278 278 278 277 277 278 278 276 275 276 275 274 274 275 277 279 281 282 282 284 285 285 283 283 283 283 283 285 286 287 288 290 291 291 292
Height
5776 5776 5776 5776 5776 5776 5776 5775 5775 5776 5776 5778 5778 5778 5778 5778 5778 5779 5779 5778 5778 5778 5777 5777 5776 5775 5775 5773 5772 5771 5769 5768 5766 5764 5762 5761 5759 5757 5756 5754 5752 5751 5749 5748
5771 5770 5770 5770 5771 5771 5770 5770 5769 5769 5770 5771 5771 5771 5771 5771 5772 5772 5772 5772 5772 5771 5771 5770 5770 5769 5768 5767 5766 5764 5763 5761 5759 5757 5755 5754 5752 5750 5748 5747 5745 5743 5741 5740
5765 5764 5764 5765 5766 5765 5764 5764 5764 5763 5765 5764 5764 5764 5764 5764 5765 5765 5766 5766 5765 5765 5764 5764 5763 5762 5762 5761 5759 5758 5756 5754 5752 5750 5748 5746 5744 5742 5741 5739 5737 5735 5733 5732
5757 5758 5758 5762 5759 5759 5758 5758 5758 5757 5757 5757 5757 5757 5757 5758 5758 5758 5758 5758 5758 5758 5757 5757 5756 5755 5754 5753 5752 5751 5749 5747 5745 5743 5741 5739 5736 5735 5733 5731 5730 5728 5726 5724
5750 5749 5751 5754 5753 5752 5752 5752 5752 5751 5751 5751 5751 5751 5751 5751 5751 5751 5751 5751 5751 5751 5750 5750 5749 5748 5747 5746 5745 5743 5741 5739 5737 5735 5733 5730 5728 5726 5725 5723 5721 5720 5718 5717
5743 5742 5744 5748 5747 5745 5746 5745 5746 5745 5744 5744 5744 5745 5746 5745 5744 5744 5744 5744 5744 5743 5743 5742 5741 5740 5739 5738 5736 5735 5733 5731 5728 5726 5724 5721 5719 5718 5716 5715 5713 5712 5710 5709
5736 5735 5736 5739 5739 5739 5740 5740 5739 5738 5738 5738 5738 5738 5738 5737 5737 5737 5737 5737 5736 5736 5735 5734 5733 5732 5731 5729 5728 5726 5724 5722 5720 5717 5715 5712 5710 5709 5708 5706 5705 5703 5702 5701
5728 5728 5732 5732 5731 5732 5732 5732 5731 5731 5731 5731 5731 5731 5730 5730 5730 5730 5730 5729 5729 5728 5727 5726 5725 5724 5723 5721 5719 5717 5715 5713 5711 5709 5706 5704 5702 5700 5699 5698 5696 5695 5694 5692
5722 5724 5724 5723 5723 5724 5724 5724 5724 5724 5724 5724 5724 5724 5723 5723 5723 5723 5722 5722 5721 5720 5719 5718 5717 5715 5714 5712 5710 5708 5706 5704 5702 5700 5698 5696 5694 5692 5691 5689 5688 5686 5685 5684
5713 5715 5715 5715 5715 5716 5716 5716 5717 5717 5717 5717 5717 5716 5716 5716 5715 5715 5714 5714 5713 5712 5710 5709 5708 5706 5705 5703 5701 5699 5697 5695 5694 5692 5690 5688 5686 5684 5683 5681 5680 5678 5677 5676
5705 5707 5707 5707 5708 5708 5708 5709 5709 5709 5710 5710 5710 5709 5708 5708 5707 5707 5706 5705 5704 5703 5701 5700 5699 5697 5695 5694 5692 5690 5689 5687 5685 5684 5682 5680 5678 5677 5675 5673 5671 5670 5669 5667
5698 5698 5698 5699 5700 5700 5700 5701 5701 5701 5702 5702 5702 5701 5700 5700 5699 5698 5697 5696 5695 5694 5692 5690 5689 5687 5686 5684 5683 5681 5680 5678 5677 5675 5674 5672 5671 5669 5667 5665 5663 5662 5660 5659
5688 5689 5689 5690 5691 5692 5692 5693 5693 5693 5694 5694 5693 5693 5692 5691 5690 5689 5688 5686 5685 5684 5682 5681 5679 5678 5676 5675 5673 5672 5671 5670 5669 5667 5666 5664 5663 5661 5659 5657 5655 5654 5652 5650
5679 5679 5680 5682 5683 5683 5684 5684 5685 5685 5685 5685 5684 5684 5683 5683 5681 5680 5679 5677 5675 5674 5672 5671 5669 5668 5666 5665 5664 5663 5662 5661 5660 5659 5657 5656 5655 5653 5651 5649 5648 5646 5644 5642
5670 5670 5671 5673 5674 5674 5675 5675 5676 5676 5676 5676 5675 5675 5674 5674 5672 5671 5669 5668 5666 5664 5663 5661 5660 5659 5657 5656 5655 5655 5654 5653 5651 5650 5649 5648 5646 5645 5643 5641 5639 5638 5636 5634
5661 5661 5662 5663 5665 5665 5666 5666 5666 5667 5667 5667 5666 5666 5665 5664 5663 5661 5660 5659 5657 5656 5654 5653 5651 5650 5649 5648 5647 5646 5645 5644 5643 5642 5641 5639 5638 5636 5634 5633 5631 5629 5628 5626
5652 5653 5654 5655 5656 5656 5657 5657 5657 5657 5657 5657 5657 5656 5656 5655 5654 5653 5651 5650 5648 5647 5645 5644 5643 5642 5641 5640 5639 5638 5637 5636 5635 5634 5633 5631 5630 5628 5626 5624 5623 5621 5620 5618
5643 5644 5645 5646 5646 5647 5647 5648 5648 5648 5648 5648 5648 5647 5647 5646 5645 5644 5642 5641 5640 5639 5637 5636 5635 5634 5633 5632 5631 5630 5629 5628 5627 5626 5624 5623 5622 5620 5618 5617 5615 5613 5612 5610
5634 5635 5636 5636 5637 5638 5638 5639 5639 5639 5639 5639 5639 5638 5638 5637 5636 5635 5634 5633 5632 5631 5629 5628 5627 5626 5625 5624 5623 5622 5621 5620 5619 5618 5616 5615 5614 5612 5610 5609 5607 5605 5604 5602
5625 5626 5627 5628 5628 5629 5630 5630 5630 5630 5630 5629 5629 5629 5629 5628 5627 5626 5625 5624 5623 5622 5620 5619 5618 5617 5616 5616 5615 5614 5613 5612 5611 5610 5608 5607 5606 5604 5602 5601 5599 5598 5596 5594
5618 5618 5619 5619 5619 5620 5620 5621 5621 5621 5621 5620 5620 5620 5620 5619 5618 5617 5616 5615 5614 5613 5612 5611 5610 5609 5608 5607 5606 5605 5604 5604 5603 5601 5600 5599 5598 5596 5595 5593 5591 5590 5588 5586
5610 5610 5610 5610 5611 5611 5611 5612 5612 5612 5612 5612 5611 5611 5610 5610 5609 5608 5607 5607 5606 5605 5604 5603 5602 5601 5600 5599 5598 5597 5596 5595 5594 5593 5592 5590 5589 5588 5586 5585 5583 5581 5580 5578
5602 5602 5602 5602 5602 5603 5603 5603 5603 5603 5603 5603 5602 5602 5601 5601 5600 5600 5599 5598 5597 5596 5596 5595 5593 5592 5591 5590 5589 5588 5587 5586 5585 5584 5583 5582 5580 5579 5578 5576 5574 5573 5571 5569
5594 5594 5594 5594 5594 5594 5594 5594 5594 5594 5594 5594 5593 5593 5593 5592 5591 5591 5590 5589 5588 5588 5587 5586 5585 5584 5583 5582 5581 5580 5578 5577 5576 5575 5574 5572 5571 5570 5569 5567 5566 5564 5562 5561
5586 5587 5587 5587 5587 5586 5586 5586 5586 5585 5585 5585 5584 5584 5584 5583 5583 5582 5581 5580 5579 5579 5578 5577 5576 5575 5574 5573 5572 5570 5569 5568 5567 5566 5565 5563 5562 5561 5560 5558 5557 5555 5553 5551
5579 5579 5579 5579 5579 5578 5578 5578 5577 5577 5576 5576 5576 5575 5575 5574 5573 5573 5572 5571 5570 5569 5569 5568 5567 5566 5565 5564 5563 5561 5560 5559 5557 5556 5555 5554 5553 5552 5551 5549 5547 5546 5544 5542
5570 5570 5570 5570 5570 5570 5570 5569 5569 5568 5568 5567 5567 5566 5566 5565 5564 5564 5563 5562 5561 5561 5560 5559 5558 5557 5556 5555 5553 5552 5551 5549 5548 5547 5546 5545 5544 5543 5541 5540 5538 5536 5534 5532